Regional Weather Roundup
Issued by NWS

Home | Current Version | Previous Version | Text Only | Print | Product List | Glossary Off
Versions: 1 2 3 4 5 6 7 8 9 10 11 12 13 14 15 16 17 18 19 20 21 22 23 24 25 26 27 28 29 30 31 32 33 34 35 36 37 38 39 40 41 42 43 44 45 46 47 48 49 50

000
ASUS43 KDMX 202107
RWRIA

WEATHER ROUNDUP FOR IOWA
NATIONAL WEATHER SERVICE DES MOINES IA
400 PM CDT WED AUG 20 2014

NOTE: "FAIR" INDICATES FEW OR NO CLOUDS BELOW 12,000 FEET WITH NO
SIGNIFICANT WEATHER AND/OR OBSTRUCTIONS TO VISIBILITY.

* - THESE STATIONS ARE NOT NWS STATIONS...THUS NOT UNDER NWS
QUALITY CONTROL.  THEY ALSO DO NOT REPORT WEATHER SUCH
AS PRECIPITATION OR FOG.

IAZ001>003-012>014-020>022-031>034-043>046-202200-
   NORTHWEST IOWA

CITY           SKY/WX    TMP DP  RH WIND       PRES   REMARKS
CARROLL *      SUNNY     75  70  83 S9        29.84S
CHEROKEE *     CLOUDY    72  70  94 S9        29.81F
DENISON *      SUNNY     81  73  78 S7G15     29.81F HX  85
LE MARS *      MOSUNNY   72  70  94 S6        29.80F
ORANGE CITY *  LGT RAIN  73  66  78 S6        29.81S
SHELDON *      SUNNY     73  70  88 SE12      29.80F
SIOUX CITY     CLOUDY    75  71  87 SE7       29.79F
SPENCER        PTSUNNY   78  68  71 S10       29.83S HX  80
STORM LAKE *   SUNNY     72  72 100 S8        29.85R
$$

IAZ055>058-069>071-079>083-090>094-202200-
   SOUTHWEST IOWA

CITY           SKY/WX    TMP DP  RH WIND       PRES   REMARKS
ATLANTIC *     SUNNY     84  73  70 S15G22    29.82F HX  91
AUDUBON *      SUNNY     84  75  74 S10G17    29.85F HX  92
CLARINDA *     MOSUNNY   86  77  74 SE10G18   29.85F HX  97
COUNCIL BLFS * SUNNY     88  77  70 SE16G23   29.80F HX 100
CRESTON *      SUNNY     84  72  65 S15G22    29.88S HX  89
HARLAN  *      SUNNY     84  75  74 SE13G21   29.85F HX  92
LAMONI         MOSUNNY   85  72  65 S14G20    29.88F HX  91
RED OAK *      MOSUNNY   88  75  66 S17       29.83F HX  97
SHENANDOAH *   SUNNY     88  77  70 SE14G23   29.82F HX 100
$$

IAZ047>049-059>061-072>074-084-202200-
   CENTRAL IOWA

CITY           SKY/WX    TMP DP  RH WIND       PRES   REMARKS
AMES           CLOUDY    76  69  79 SE6       29.87S
ANKENY *       SUNNY     81  72  74 S6G12     29.86S HX  84
CHARITON *     SUNNY     81  72  74 S9G17     29.88S HX  84
DES MOINES     CLOUDY    82  70  66 S9        29.85F HX  86
GRINNELL*      CLOUDY    75  68  78 S8        29.89S
KNOXVILLE *    SUNNY     81  68  65 S9G16     29.86S HX  83
MARSHALLTOWN   CLOUDY    73  67  81 S12       29.86F
PELLA *        PTSUNNY   81  70  69 S7        29.89R HX  84
PERRY *          N/A     77  72  83 SE6       29.86S
$$

IAZ004>006-015-016-023>025-035-036-202200-
   NORTH CENTRAL IOWA

CITY           SKY/WX    TMP DP  RH WIND       PRES   REMARKS
ALGONA *       SUNNY     77  70  78 S7        29.85S
CLARION *      SUNNY     77  70  78 S9        29.84F
ESTHERVILLE    PTSUNNY   76  69  79 S10       29.84S
FORT DODGE *   CLOUDY    73  70  88 S6        29.85R
MASON CITY     PTSUNNY   78  66  66 S5        29.88S HX  80
FOREST CITY *  SUNNY     77  68  73 CALM      29.86S
IOWA FALLS *     N/A     75  66  73 S6        29.88S
$$

IAZ007>011-017>019-026>030-037>042-050>054-066-202200-
   NORTHEAST IOWA

CITY           SKY/WX    TMP DP  RH WIND       PRES   REMARKS
CEDAR RAPIDS   LGT RAIN  74  70  87 SE5       29.86F
CHARLES CITY * SUNNY     79  70  73 SE6       29.87S HX  81
CLINTON *      CLOUDY    79  66  65 S13       29.91S HX  81
DECORAH *      SUNNY     81  68  65 CALM      29.86F HX  83
DUBUQUE        PTSUNNY   82  67  60 SW9       29.89R HX  84
MONTICELLO *   MOSUNNY   79  70  73 SW15G21   29.90R HX  81
OELWEIN *      MOSUNNY   77  70  78 SW9       29.88S
WATERLOO       CLOUDY    73  67  81 SW5       29.87R
$$

IAZ064-065-067-068-078-202200-
   EAST CENTRAL IOWA

CITY           SKY/WX    TMP DP  RH WIND       PRES   REMARKS
DAVENPORT      CLOUDY    76  70  82 S15G21    29.90F
IOWA CITY      CLOUDY    76  68  76 SW5       29.93R
MT. PLEASANT * CLOUDY    79  68  69 SW9       29.91R HX  81
MUSCATINE *    CLOUDY    73  70  88 S8G15     29.91F
QUAD CITIES    CLOUDY    76  68  76 SW10G21   29.91R
$$

IAZ062-063-075>077-085>089-095>099-202200-
   SOUTHEAST IOWA

CITY           SKY/WX    TMP DP  RH WIND       PRES   REMARKS
BURLINGTON     CLOUDY    79  71  76 S13G22    29.90S HX  82
FAIRFIELD *    SUNNY     79  70  73 S12       29.89F HX  81
FORT MADISON * SUNNY     82  72  69 S12G17    29.91S HX  87
KEOKUK *       SUNNY     82  72  69 S12G18    29.90F HX  87
OSKALOOSA *      N/A     79  72  78 S8        29.88F HX  82
CENTERVILLE *  SUNNY     82  73  74 S8        29.92S HX  88
OTTUMWA        PTSUNNY   80  70  71 S8        29.86F HX  83
WASHINGTON *   SUNNY     77  72  83 S9        29.90S
$$

ABBREVIATIONS USED IN REMARKS
   TC - TEMPERATURES IN CELSIUS
  WCI - WIND CHILL INDEX
   HX - HEAT INDEX
  VSB - VISIBILITY
$$



USA.gov is the U.S. government's official web portal to all federal, state and local government web resources and services.